Orbital Elements at Epoch 2459000.5 (2020-May-31.0) TDB
Reference: JPL 27 (heliocentric ecliptic J2000)
Element | Value | Uncertainty (1-sigma) | Units |
e | .1406497403027712 | 3.5116e-08 | |
a | 2.315259088035029 | 8.1263e-09 | au |
q | 1.989618498569271 | 8.1554e-08 | au |
i | 7.614091031676533 | 3.9177e-06 | deg |
node | 88.3050558734172 | 3.4134e-05 | deg |
peri | 353.9505850574543 | 3.7787e-05 | deg |
M | 298.4929967773368 | 1.5689e-05 | deg |
tp | 2459220.346669157652 (2021-Jan-05.84666916) | 5.6046e-05 | TDB |
period | 1286.760803647682 3.52 | 6.7745e-06 1.855e-08 | d yr |
n | .2797722770071017 | 1.4729e-09 | deg/d |
Q | 2.640899677500787 | 9.2692e-09 | au |
|
| | Orbit Determination Parameters
Additional Information
|